Location: Unspecified
(52.1384°N, 8.6525°W)
Time: 18:19:00
(UTC+00:00)

N. Korean satellite - Pass Details

Date: 30 October 2020
Orbit: 453 x 503 km, 97.2° (Epoch: 04 December)

Event Time Altitude Azimuth Distance (km) Brightness Sun altitude
Rises 17:51:24 0° 193° (SSW) 2,533 10.6 -7.1°
Reaches altitude 10° 17:53:41 10° 206° (SSW) 1,649 9.9 -7.4°
Maximum altitude 17:56:44 26° 265° (W) 957 9.1 -7.9°
Drops below altitude 10° 17:59:45 10° 324° (NW) 1,637 9.6 -8.3°
Sets 18:02:02 0° 338° (NNW) 2,510 10.3 -8.6°
